Total_Precipitation_Accumulation
0.28 0.29 0.24 0.23 0.21 0.16 0.13 0.11 0.08 0.07 0.06 0.04 0.03 0.01 0.00 0.00 0.00 0.00 0.00 0.00 0.00 0.01 0.02 0.03 0.04 0.06 0.09 0.13 0.17 0.20 0.19 0.17 0.17 0.17 0.18 0.18 0.19 0.19 0.20 0.21 0.21 0.22 0.22
0.29 0.28 0.25 0.22 0.20 0.17 0.14 0.10 0.07 0.07 0.07 0.06 0.04 0.03 0.01 0.01 0.01 0.01 0.01 0.01 0.01 0.01 0.01 0.02 0.04 0.07 0.11 0.15 0.20 0.23 0.23 0.21 0.20 0.20 0.21 0.22 0.22 0.22 0.23 0.25 0.25 0.26 0.26
0.38 0.34 0.30 0.24 0.21 0.20 0.19 0.18 0.14 0.10 0.08 0.06 0.05 0.04 0.03 0.02 0.01 0.01 0.01 0.01 0.01 0.01 0.01 0.01 0.04 0.07 0.10 0.14 0.19 0.24 0.26 0.25 0.24 0.25 0.26 0.27 0.28 0.29 0.31 0.33 0.34 0.35 0.37
0.43 0.41 0.35 0.29 0.24 0.23 0.21 0.21 0.20 0.16 0.10 0.07 0.06 0.05 0.04 0.02 0.01 0.01 0.01 0.01 0.01 0.01 0.01 0.01 0.02 0.04 0.07 0.11 0.16 0.24 0.26 0.28 0.26 0.26 0.27 0.30 0.32 0.34 0.38 0.41 0.44 0.47 0.51
0.47 0.45 0.40 0.35 0.33 0.27 0.22 0.18 0.18 0.16 0.13 0.10 0.07 0.06 0.04 0.03 0.02 0.01 0.01 0.01 0.01 0.00 0.00 0.01 0.01 0.02 0.04 0.06 0.11 0.19 0.27 0.31 0.31 0.31 0.31 0.32 0.34 0.37 0.40 0.45 0.51 0.57 0.65
0.58 0.51 0.46 0.40 0.38 0.38 0.31 0.25 0.21 0.18 0.15 0.13 0.12 0.09 0.07 0.04 0.03 0.02 0.01 0.01 0.02 0.01 0.01 0.01 0.01 0.01 0.02 0.05 0.07 0.12 0.21 0.29 0.34 0.35 0.35 0.36 0.37 0.39 0.42 0.49 0.57 0.66 0.78
0.77 0.64 0.54 0.49 0.45 0.42 0.38 0.33 0.32 0.29 0.25 0.23 0.22 0.18 0.12 0.08 0.05 0.03 0.03 0.02 0.02 0.02 0.02 0.01 0.01 0.02 0.03 0.04 0.05 0.08 0.12 0.22 0.33 0.39 0.41 0.41 0.42 0.45 0.51 0.61 0.71 0.80 0.89
0.89 0.80 0.68 0.58 0.53 0.51 0.48 0.44 0.41 0.39 0.36 0.36 0.37 0.36 0.25 0.16 0.09 0.06 0.05 0.04 0.03 0.04 0.03 0.02 0.02 0.03 0.03 0.04 0.05 0.05 0.07 0.11 0.22 0.40 0.51 0.54 0.57 0.60 0.67 0.78 0.92 1.01 1.09
1.16 1.01 0.95 0.85 0.69 0.61 0.57 0.54 0.49 0.46 0.43 0.40 0.40 0.48 0.45 0.31 0.21 0.14 0.09 0.07 0.06 0.06 0.06 0.06 0.05 0.05 0.05 0.06 0.07 0.08 0.10 0.11 0.16 0.31 0.52 0.69 0.78 0.87 0.98 1.10 1.21 1.30 1.36
1.45 1.39 1.24 1.15 1.01 0.84 0.72 0.69 0.64 0.60 0.59 0.55 0.51 0.46 0.45 0.42 0.42 0.32 0.19 0.13 0.12 0.10 0.10 0.09 0.08 0.08 0.09 0.10 0.12 0.16 0.19 0.21 0.25 0.34 0.52 0.74 0.94 1.17 1.38 1.53 1.62 1.68 1.66
1.53 1.50 1.44 1.34 1.22 1.10 0.99 0.93 0.85 0.81 0.77 0.72 0.67 0.60 0.57 0.52 0.51 0.54 0.38 0.22 0.19 0.18 0.17 0.16 0.16 0.16 0.17 0.18 0.19 0.23 0.29 0.33 0.38 0.44 0.62 0.85 1.14 1.44 1.70 1.86 1.93 1.89 1.83
1.65 1.50 1.47 1.43 1.36 1.29 1.20 1.16 1.13 1.03 0.94 0.87 0.82 0.77 0.76 0.72 0.64 0.69 0.65 0.46 0.38 0.31 0.30 0.29 0.29 0.28 0.28 0.29 0.31 0.35 0.36 0.39 0.46 0.55 0.75 1.02 1.21 1.37 1.54 1.75 1.90 1.96 1.99
1.63 1.53 1.47 1.48 1.47 1.38 1.32 1.30 1.25 1.15 1.09 1.01 0.96 0.92 0.90 0.86 0.83 0.88 0.93 0.79 0.65 0.49 0.42 0.39 0.39 0.40 0.40 0.42 0.43 0.50 0.49 0.51 0.54 0.57 0.70 0.95 1.09 1.12 1.15 1.27 1.52 1.74 1.88
1.57 1.56 1.55 1.49 1.49 1.47 1.38 1.33 1.27 1.18 1.15 1.11 1.05 1.03 0.99 0.93 0.96 1.00 1.06 1.12 1.02 0.75 0.57 0.48 0.46 0.51 0.53 0.55 0.58 0.62 0.53 0.56 0.54 0.57 0.62 0.72 0.78 0.78 0.81 0.89 1.06 1.25 1.43
1.46 1.38 1.37 1.37 1.36 1.36 1.34 1.31 1.25 1.16 1.13 1.11 1.06 1.03 1.00 0.94 0.95 1.01 1.09 1.23 1.38 1.21 0.86 0.63 0.60 0.60 0.65 0.66 0.68 0.65 0.57 0.61 0.62 0.60 0.58 0.57 0.58 0.60 0.64 0.72 0.82 0.93 1.05
1.23 1.21 1.19 1.19 1.18 1.19 1.18 1.17 1.13 1.10 1.09 1.02 0.98 0.97 0.92 0.89 0.92 0.99 1.08 1.17 1.31 1.41 1.16 0.75 0.62 0.59 0.61 0.60 0.61 0.56 0.50 0.57 0.54 0.51 0.48 0.48 0.49 0.52 0.56 0.62 0.68 0.76 0.85
0.97 0.95 0.92 0.92 0.96 1.00 1.00 0.99 0.98 0.99 1.01 0.98 0.98 0.99 0.97 0.94 0.94 0.95 0.99 1.04 1.12 1.22 1.20 0.84 0.66 0.62 0.60 0.54 0.51 0.48 0.43 0.42 0.40 0.44 0.44 0.46 0.47 0.50 0.53 0.57 0.61 0.66 0.73
0.84 0.79 0.75 0.72 0.71 0.74 0.77 0.77 0.77 0.81 0.86 0.87 0.88 0.92 0.93 0.94 0.96 0.93 0.93 0.92 0.91 0.93 1.01 0.88 0.63 0.56 0.52 0.51 0.52 0.50 0.45 0.40 0.36 0.41 0.43 0.45 0.49 0.50 0.52 0.55 0.61 0.66 0.69
0.75 0.69 0.66 0.62 0.60 0.59 0.60 0.61 0.64 0.67 0.71 0.73 0.74 0.77 0.80 0.84 0.85 0.81 0.80 0.78 0.77 0.79 0.86 0.87 0.68 0.56 0.51 0.48 0.50 0.50 0.46 0.42 0.39 0.44 0.50 0.51 0.54 0.54 0.57 0.61 0.64 0.68 0.71
0.76 0.67 0.59 0.56 0.55 0.56 0.58 0.59 0.62 0.65 0.66 0.67 0.68 0.68 0.67 0.66 0.65 0.66 0.69 0.71 0.76 0.83 0.85 0.89 0.80 0.64 0.58 0.52 0.53 0.50 0.48 0.45 0.46 0.46 0.54 0.58 0.60 0.60 0.59 0.62 0.66 0.69 0.72
0.73 0.72 0.66 0.60 0.58 0.58 0.60 0.64 0.64 0.66 0.67 0.67 0.65 0.62 0.59 0.60 0.58 0.59 0.62 0.68 0.76 0.87 0.95 1.01 0.94 0.81 0.70 0.62 0.56 0.54 0.60 0.61 0.62 0.57 0.56 0.57 0.59 0.61 0.63 0.66 0.69 0.69 0.71
0.69 0.74 0.76 0.74 0.69 0.67 0.76 0.73 0.67 0.67 0.69 0.67 0.65 0.60 0.58 0.61 0.58 0.58 0.62 0.70 0.82 0.96 1.08 1.12 1.08 0.94 0.74 0.63 0.64 0.72 0.83 0.95 0.88 0.61 0.62 0.64 0.64 0.70 0.68 0.67 0.76 0.80 0.79
0.79 0.79 0.82 0.83 0.82 0.82 0.83 0.73 0.69 0.63 0.64 0.64 0.62 0.58 0.54 0.53 0.57 0.53 0.58 0.70 0.79 0.88 0.92 0.92 0.90 0.74 0.66 0.64 0.80 1.00 1.02 1.05 0.88 0.65 0.75 0.85 0.75 0.74 0.71 0.74 0.86 0.83 0.80
0.80 0.83 0.85 0.83 0.80 0.79 0.76 0.65 0.62 0.56 0.58 0.59 0.57 0.55 0.56 0.55 0.54 0.59 0.65 0.72 0.65 0.61 0.63 0.63 0.65 0.64 0.66 0.74 0.96 1.23 1.32 1.31 1.11 0.92 0.89 0.96 0.77 0.71 0.70 0.73 0.83 0.79 0.73
0.74 0.72 0.72 0.74 0.74 0.73 0.67 0.58 0.56 0.51 0.53 0.51 0.50 0.49 0.51 0.51 0.60 0.73 0.79 0.80 0.65 0.51 0.53 0.61 0.69 0.70 0.72 0.77 0.86 1.15 1.37 1.46 1.28 0.94 0.81 0.87 0.82 0.77 0.77 0.73 0.74 0.77 0.72
0.66 0.64 0.59 0.58 0.57 0.58 0.58 0.53 0.51 0.48 0.50 0.48 0.46 0.46 0.50 0.52 0.63 0.76 0.75 0.78 0.73 0.59 0.59 0.61 0.63 0.65 0.62 0.67 0.82 0.96 1.38 1.80 1.59 1.19 0.80 0.87 0.89 0.95 1.10 0.78 0.68 0.69 0.69